Location: Unspecified
(52.0000°N, 4.4000°E)
Time: 00:05:28
(UTC+00:00)

Cosmos 2219 Rocket - Pass Details

Date: 14 May 2025
Orbit: 828 x 844 km, 71.0° (Epoch: 22 June)

Event Time Altitude Azimuth Distance (km) Brightness Sun altitude
Rises 23:42:41 0° 330° (NNW) 3,404 6.4 -19.1°
Reaches altitude 10° 23:45:19 10° 338° (NNW) 2,463 5.6 -19.1°
Maximum altitude 23:50:34 38° 46° (NE) 1,264 3.5 -19.1°
Drops below altitude 10° 23:55:45 10° 114° (ESE) 2,441 4.4 -19.0°
Enters shadow 23:57:17 - 120° (ESE) 2,977 4.8 -19.0°
